IGO822 VECC-VEIM

Flight info

Callsign IGO822
Flight time 1h 6m
Altitude 37000
Route NOKAT2E NOKAT B593 CML DCT POREG
Aircraft A20N/M-SDE2E3FGHIRWXY/LB1

Departure

Time 2026-05-09 01:15
Airport Netaji Subhash Chandra Bose International Airport (VECC)

Arrival

Time 2026-05-09 02:22
Airport Bir Tikendrajit International Airport (VEIM)
Time Latitude Longitude Altitude Speed Heading
2026-05-09 00:46 22.64176 88.44211 23 ft 0 kts 96°
2026-05-09 01:13 22.64176 88.44216 23 ft 2 kts 96°
2026-05-09 01:13 22.64173 88.44241 24 ft 5 kts 96°
2026-05-09 01:13 22.64168 88.44299 24 ft 10 kts 94°
2026-05-09 01:14 22.64185 88.44375 25 ft 11 kts 69°
2026-05-09 01:14 22.64218 88.44459 30 ft 13 kts 66°
2026-05-09 01:14 22.64255 88.44559 27 ft 11 kts 66°
2026-05-09 01:14 22.64283 88.44624 28 ft 10 kts 59°
2026-05-09 01:15 22.64369 88.44654 28 ft 25 kts
2026-05-09 01:15 22.64860 88.44711 29 ft 117 kts
2026-05-09 01:15 22.65898 88.44843 207 ft 168 kts
2026-05-09 01:15 22.66949 88.45028 1056 ft 146 kts
2026-05-09 01:16 22.67923 88.45441 1430 ft 163 kts 40°
2026-05-09 01:16 22.68540 88.46566 1694 ft 188 kts 70°
2026-05-09 01:16 22.68965 88.47990 1984 ft 208 kts 71°
2026-05-09 01:17 22.69966 88.51308 2695 ft 254 kts 72°
2026-05-09 01:17 22.70527 88.53182 3504 ft 266 kts 73°
2026-05-09 01:17 22.71105 88.55099 4429 ft 271 kts 73°
2026-05-09 01:17 22.71693 88.57053 5344 ft 275 kts 72°
2026-05-09 01:18 22.72288 88.59044 6257 ft 280 kts 72°
2026-05-09 01:18 22.72897 88.61073 6749 ft 285 kts 72°
2026-05-09 01:18 22.73512 88.63111 6893 ft 285 kts 72°
2026-05-09 01:18 22.74130 88.65155 6927 ft 285 kts 71°
2026-05-09 01:19 22.74750 88.67197 6929 ft 286 kts 71°
2026-05-09 01:19 22.75370 88.69239 6931 ft 285 kts 71°
2026-05-09 01:19 22.75906 88.71305 6930 ft 286 kts 81°
2026-05-09 01:19 22.76195 88.73462 7574 ft 290 kts 81°
2026-05-09 01:20 22.76494 88.75637 8493 ft 293 kts 81°
2026-05-09 01:20 22.76802 88.77833 9300 ft 297 kts 80°
2026-05-09 01:20 22.77117 88.80063 10071 ft 303 kts 80°
2026-05-09 01:20 22.77444 88.82373 10354 ft 326 kts 80°
2026-05-09 01:21 22.77795 88.84857 10817 ft 339 kts 80°
2026-05-09 01:21 22.78151 88.87404 11504 ft 345 kts 80°
2026-05-09 01:21 22.78509 88.89992 12227 ft 349 kts 80°
2026-05-09 01:21 22.78870 88.92616 12751 ft 355 kts 81°
2026-05-09 01:22 22.79391 88.95234 12941 ft 358 kts 71°
2026-05-09 01:22 22.80160 88.97808 13664 ft 360 kts 71°
2026-05-09 01:22 22.80925 89.00401 14374 ft 363 kts 71°
2026-05-09 01:22 22.81694 89.03026 15051 ft 368 kts 71°
2026-05-09 01:23 22.82473 89.05684 15701 ft 372 kts 72°
2026-05-09 01:23 22.83256 89.08370 16325 ft 376 kts 72°
2026-05-09 01:23 22.84046 89.11088 16939 ft 380 kts 72°
2026-05-09 01:23 22.84847 89.13838 17554 ft 385 kts 72°
2026-05-09 01:24 22.85659 89.16618 18164 ft 389 kts 73°
2026-05-09 01:24 22.86483 89.19429 18748 ft 393 kts 73°
2026-05-09 01:24 22.87316 89.22276 19260 ft 400 kts 73°
2026-05-09 01:24 22.88159 89.25172 19767 ft 405 kts 73°
2026-05-09 01:25 22.89015 89.28115 20262 ft 411 kts 73°
2026-05-09 01:25 22.89883 89.31096 20742 ft 417 kts 73°
2026-05-09 01:25 22.90748 89.34068 21201 ft 421 kts 73°
2026-05-09 01:25 22.91636 89.37116 21638 ft 427 kts 73°
2026-05-09 01:26 22.92536 89.40208 22066 ft 432 kts 73°
2026-05-09 01:26 22.93446 89.43332 22484 ft 436 kts 73°
2026-05-09 01:26 22.94363 89.46487 22900 ft 442 kts 74°
2026-05-09 01:26 22.95289 89.49689 23322 ft 446 kts 74°
2026-05-09 01:27 22.96221 89.52924 23737 ft 451 kts 74°
2026-05-09 01:27 22.97161 89.56189 24124 ft 455 kts 74°
2026-05-09 01:27 22.98109 89.59480 24514 ft 460 kts 74°
2026-05-09 01:27 22.99070 89.62816 24883 ft 464 kts 74°
2026-05-09 01:28 23.00038 89.66168 25268 ft 467 kts 74°
2026-05-09 01:28 23.01015 89.69542 25637 ft 471 kts 74°
2026-05-09 01:28 23.02001 89.72945 26020 ft 474 kts 75°
2026-05-09 01:28 23.02990 89.76374 26385 ft 477 kts 75°
2026-05-09 01:29 23.03983 89.79822 26740 ft 481 kts 75°
2026-05-09 01:29 23.04972 89.83258 27075 ft 484 kts 75°
2026-05-09 01:29 23.05974 89.86758 27412 ft 487 kts 75°
2026-05-09 01:29 23.06982 89.90283 27733 ft 490 kts 75°
2026-05-09 01:30 23.07995 89.93831 28053 ft 493 kts 75°
2026-05-09 01:30 23.09014 89.97399 28378 ft 496 kts 75°
2026-05-09 01:30 23.10039 90.00996 28685 ft 499 kts 75°
2026-05-09 01:30 23.11059 90.04621 29010 ft 502 kts 76°
2026-05-09 01:31 23.12072 90.08255 29338 ft 505 kts 76°
2026-05-09 01:31 23.13092 90.11925 29645 ft 508 kts 76°
2026-05-09 01:31 23.14114 90.15611 29954 ft 511 kts 76°
2026-05-09 01:31 23.15128 90.19269 30243 ft 514 kts 76°
2026-05-09 01:32 23.16166 90.22992 30559 ft 517 kts 76°
2026-05-09 01:32 23.17213 90.26737 30858 ft 519 kts 76°
2026-05-09 01:32 23.18267 90.30508 31165 ft 522 kts 76°
2026-05-09 01:32 23.19322 90.34290 31456 ft 524 kts 75°
2026-05-09 01:33 23.20383 90.38092 31766 ft 526 kts 75°
2026-05-09 01:33 23.21444 90.41894 32188 ft 525 kts 75°
2026-05-09 01:33 23.22500 90.45701 32621 ft 525 kts 75°
2026-05-09 01:33 23.23567 90.49493 33049 ft 524 kts 75°
2026-05-09 01:34 23.24648 90.53279 33469 ft 524 kts 75°
2026-05-09 01:34 23.25739 90.57058 33881 ft 523 kts 75°
2026-05-09 01:34 23.26830 90.60829 34265 ft 523 kts 75°
2026-05-09 01:34 23.27921 90.64606 34656 ft 522 kts 74°
2026-05-09 01:35 23.28993 90.68328 35057 ft 521 kts 74°
2026-05-09 01:35 23.30071 90.72084 35444 ft 520 kts 74°
2026-05-09 01:35 23.31140 90.75834 35828 ft 519 kts 74°
2026-05-09 01:35 23.32205 90.79582 36198 ft 518 kts 74°
2026-05-09 01:36 23.33269 90.83324 36558 ft 517 kts 74°
2026-05-09 01:36 23.34332 90.87068 36854 ft 517 kts 74°
2026-05-09 01:36 23.36438 90.94501 36944 ft 510 kts 74°
2026-05-09 01:37 23.38514 91.01849 36943 ft 505 kts 74°
2026-05-09 01:37 23.40575 91.09160 36941 ft 505 kts 74°
2026-05-09 01:38 23.42632 91.16438 36943 ft 506 kts 71°
2026-05-09 01:38 23.45790 91.23254 36943 ft 505 kts 56°
2026-05-09 01:39 23.49560 91.29716 36945 ft 505 kts 56°
2026-05-09 01:39 23.53320 91.36202 36950 ft 506 kts 56°
2026-05-09 01:40 23.57072 91.42689 36952 ft 506 kts 56°
2026-05-09 01:40 23.60827 91.49184 36951 ft 507 kts 56°
2026-05-09 01:41 23.64589 91.55689 36955 ft 507 kts 56°
2026-05-09 01:41 23.68326 91.62154 36956 ft 507 kts 56°
2026-05-09 01:42 23.72084 91.68667 36951 ft 507 kts 56°
2026-05-09 01:42 23.75845 91.75198 36951 ft 507 kts 56°
2026-05-09 01:43 23.79595 91.81729 36948 ft 508 kts 56°
2026-05-09 01:43 23.83350 91.88266 36943 ft 508 kts 56°
2026-05-09 01:44 23.86492 91.93746 36335 ft 516 kts 57°
2026-05-09 01:44 23.88415 91.97104 35441 ft 522 kts 57°
2026-05-09 01:44 23.90332 92.00450 34951 ft 518 kts 57°
2026-05-09 01:45 23.92245 92.03788 34380 ft 517 kts 57°
2026-05-09 01:45 23.94154 92.07124 33793 ft 517 kts 57°
2026-05-09 01:45 23.96057 92.10461 33214 ft 516 kts 57°
2026-05-09 01:45 23.97953 92.13783 32637 ft 514 kts 57°
2026-05-09 01:46 23.99848 92.17097 32045 ft 513 kts 58°
2026-05-09 01:46 24.01689 92.20318 31488 ft 510 kts 58°
2026-05-09 01:46 24.03583 92.23636 30924 ft 508 kts 58°
2026-05-09 01:46 24.05446 92.26907 30380 ft 505 kts 58°
2026-05-09 01:47 24.07293 92.30152 29910 ft 500 kts 58°
2026-05-09 01:47 24.09133 92.33386 29399 ft 496 kts 58°
2026-05-09 01:47 24.10945 92.36574 28856 ft 493 kts 58°
2026-05-09 01:47 24.12739 92.39735 28504 ft 485 kts 58°
2026-05-09 01:48 24.14509 92.42856 28008 ft 481 kts 58°
2026-05-09 01:48 24.16267 92.45959 27507 ft 477 kts 58°
2026-05-09 01:48 24.18013 92.49036 27041 ft 473 kts 58°
2026-05-09 01:48 24.19737 92.52076 26602 ft 468 kts 58°
2026-05-09 01:49 24.21445 92.55091 26162 ft 463 kts 58°
2026-05-09 01:49 24.23135 92.58078 25730 ft 459 kts 58°
2026-05-09 01:49 24.24808 92.61038 25301 ft 455 kts 58°
2026-05-09 01:49 24.26449 92.63937 24891 ft 450 kts 58°
2026-05-09 01:50 24.28092 92.66840 24469 ft 446 kts 59°
2026-05-09 01:50 24.29718 92.69719 24040 ft 442 kts 59°
2026-05-09 01:50 24.31327 92.72573 23656 ft 437 kts 59°
2026-05-09 01:50 24.32900 92.75370 23510 ft 425 kts 59°
2026-05-09 01:51 24.34431 92.78088 23383 ft 412 kts 59°
2026-05-09 01:51 24.35801 92.80794 23253 ft 399 kts 70°
2026-05-09 01:51 24.36520 92.83668 23126 ft 384 kts 87°
2026-05-09 01:51 24.36510 92.86514 22997 ft 366 kts 104°
2026-05-09 01:52 24.35850 92.89126 22872 ft 347 kts 120°
2026-05-09 01:52 24.34683 92.91355 22744 ft 329 kts 135°
2026-05-09 01:52 24.33155 92.93124 22619 ft 312 kts 148°
2026-05-09 01:52 24.31393 92.94409 22488 ft 297 kts 161°
2026-05-09 01:53 24.29511 92.95211 22365 ft 284 kts 172°
2026-05-09 01:53 24.27595 92.95560 22198 ft 275 kts 183°
2026-05-09 01:53 24.25731 92.95491 21948 ft 269 kts 193°
2026-05-09 01:53 24.23929 92.95041 21699 ft 263 kts 203°
2026-05-09 01:54 24.22270 92.94250 21436 ft 258 kts 212°
2026-05-09 01:54 24.20803 92.93155 21205 ft 253 kts 222°
2026-05-09 01:54 24.19567 92.91801 21120 ft 251 kts 230°
2026-05-09 01:54 24.18512 92.90273 21121 ft 252 kts 234°
2026-05-09 01:55 24.17562 92.88658 21116 ft 253 kts 241°
2026-05-09 01:55 24.16917 92.86856 21117 ft 255 kts 252°
2026-05-09 01:55 24.16601 92.84934 21121 ft 258 kts 262°
2026-05-09 01:55 24.16591 92.82956 21112 ft 262 kts 270°
2026-05-09 01:56 24.16899 92.80983 21107 ft 265 kts 280°
2026-05-09 01:56 24.17550 92.79074 21112 ft 271 kts 290°
2026-05-09 01:56 24.18548 92.77298 21106 ft 277 kts 301°
2026-05-09 01:56 24.19880 92.75737 21110 ft 284 kts 313°
2026-05-09 01:57 24.21517 92.74480 21109 ft 291 kts 325°
2026-05-09 01:57 24.23399 92.73607 21110 ft 297 kts 338°
2026-05-09 01:57 24.25447 92.73181 21111 ft 304 kts 351°
2026-05-09 01:57 24.27573 92.73245 21115 ft 309 kts
2026-05-09 01:58 24.29668 92.73832 21118 ft 314 kts 19°
2026-05-09 01:58 24.31615 92.74939 21117 ft 317 kts 33°
2026-05-09 01:58 24.33276 92.76494 21125 ft 319 kts 47°
2026-05-09 01:58 24.34640 92.78440 21037 ft 334 kts 63°
2026-05-09 01:59 24.35435 92.80882 20796 ft 344 kts 81°
2026-05-09 01:59 24.35961 92.83465 20513 ft 349 kts 80°
2026-05-09 01:59 24.36490 92.86062 20140 ft 347 kts 80°
2026-05-09 01:59 24.37017 92.88648 19853 ft 346 kts 80°
2026-05-09 02:00 24.37542 92.91211 19667 ft 344 kts 80°
2026-05-09 02:00 24.38068 92.93765 19556 ft 343 kts 79°
2026-05-09 02:00 24.38593 92.96310 19487 ft 342 kts 79°
2026-05-09 02:00 24.39115 92.98854 19461 ft 341 kts 80°
2026-05-09 02:01 24.39636 93.01397 19462 ft 341 kts 80°
2026-05-09 02:01 24.40156 93.03935 19498 ft 341 kts 80°
2026-05-09 02:01 24.40673 93.06480 19551 ft 342 kts 80°
2026-05-09 02:01 24.41191 93.09029 19616 ft 343 kts 80°
2026-05-09 02:02 24.41710 93.11580 19689 ft 343 kts 80°
2026-05-09 02:02 24.42231 93.14137 19752 ft 343 kts 80°
2026-05-09 02:02 24.42753 93.16694 19745 ft 344 kts 80°
2026-05-09 02:02 24.43277 93.19251 19715 ft 343 kts 80°
2026-05-09 02:03 24.43800 93.21807 19690 ft 344 kts 80°
2026-05-09 02:03 24.44311 93.24333 19663 ft 343 kts 80°
2026-05-09 02:03 24.44829 93.26894 19662 ft 344 kts 80°
2026-05-09 02:03 24.45348 93.29458 19706 ft 344 kts 80°
2026-05-09 02:04 24.45869 93.32024 19766 ft 345 kts 80°
2026-05-09 02:04 24.46388 93.34594 19821 ft 345 kts 80°
2026-05-09 02:04 24.46907 93.37168 19835 ft 345 kts 80°
2026-05-09 02:04 24.47425 93.39742 19817 ft 345 kts 80°
2026-05-09 02:05 24.47945 93.42317 19792 ft 345 kts 80°
2026-05-09 02:05 24.48470 93.44892 19750 ft 345 kts 80°
2026-05-09 02:05 24.48991 93.47461 19711 ft 344 kts 80°
2026-05-09 02:05 24.49508 93.50029 19670 ft 343 kts 81°
2026-05-09 02:06 24.50021 93.52584 19623 ft 343 kts 80°
2026-05-09 02:06 24.50534 93.55149 19571 ft 344 kts 80°
2026-05-09 02:06 24.51049 93.57713 19539 ft 344 kts 80°
2026-05-09 02:07 24.52060 93.62747 18662 ft 335 kts 80°
2026-05-09 02:07 24.52564 93.65270 17985 ft 341 kts 79°
2026-05-09 02:07 24.53081 93.67858 17056 ft 349 kts 79°
2026-05-09 02:07 24.53602 93.70463 16132 ft 351 kts 79°
2026-05-09 02:08 24.54124 93.73091 15195 ft 352 kts 80°
2026-05-09 02:08 24.54277 93.75756 14257 ft 349 kts 99°
2026-05-09 02:08 24.53642 93.78294 13334 ft 343 kts 118°
2026-05-09 02:08 24.52321 93.80396 12437 ft 336 kts 137°
2026-05-09 02:09 24.50441 93.81913 11536 ft 329 kts 156°
2026-05-09 02:09 24.48319 93.82658 10661 ft 323 kts 173°
2026-05-09 02:09 24.46071 93.82644 9809 ft 318 kts 191°
2026-05-09 02:09 24.43989 93.81890 8965 ft 315 kts 208°
2026-05-09 02:10 24.42285 93.80506 8540 ft 301 kts 226°
2026-05-09 02:10 24.41074 93.78752 8401 ft 279 kts 241°
2026-05-09 02:10 24.40324 93.76800 8019 ft 268 kts 253°
2026-05-09 02:10 24.39916 93.74919 7967 ft 246 kts 265°
2026-05-09 02:11 24.39959 93.73136 7971 ft 223 kts 279°
2026-05-09 02:11 24.40308 93.71586 7989 ft 198 kts 289°
2026-05-09 02:11 24.40846 93.70273 7971 ft 180 kts 300°
2026-05-09 02:11 24.41516 93.69186 7953 ft 166 kts 309°
2026-05-09 02:12 24.42295 93.68276 7958 ft 162 kts 318°
2026-05-09 02:12 24.43185 93.67521 7962 ft 162 kts 327°
2026-05-09 02:12 24.44176 93.66931 7965 ft 162 kts 336°
2026-05-09 02:12 24.45240 93.66521 7972 ft 162 kts 346°
2026-05-09 02:13 24.46353 93.66302 7966 ft 163 kts 355°
2026-05-09 02:13 24.47485 93.66281 7970 ft 163 kts
2026-05-09 02:13 24.48604 93.66457 7976 ft 163 kts 13°
2026-05-09 02:13 24.49686 93.66825 7980 ft 163 kts 22°
2026-05-09 02:14 24.50700 93.67378 7982 ft 163 kts 32°
2026-05-09 02:14 24.51620 93.68103 7984 ft 163 kts 41°
2026-05-09 02:14 24.52422 93.68976 7989 ft 163 kts 50°
2026-05-09 02:14 24.53090 93.69982 7988 ft 163 kts 59°
2026-05-09 02:15 24.53606 93.71096 7987 ft 164 kts 68°
2026-05-09 02:15 24.53952 93.72283 7983 ft 164 kts 72°
2026-05-09 02:15 24.54496 93.73370 7836 ft 163 kts 47°
2026-05-09 02:15 24.55384 93.74119 7663 ft 161 kts 32°
2026-05-09 02:16 24.56319 93.74801 7459 ft 161 kts 34°
2026-05-09 02:16 24.57235 93.75500 7243 ft 160 kts 34°
2026-05-09 02:16 24.58146 93.76202 7025 ft 160 kts 36°
2026-05-09 02:16 24.59029 93.76910 6807 ft 160 kts 35°
2026-05-09 02:17 24.59936 93.77615 6594 ft 160 kts 34°
2026-05-09 02:17 24.60834 93.78300 6392 ft 152 kts 34°
2026-05-09 02:17 24.61691 93.78949 6171 ft 148 kts 34°
2026-05-09 02:17 24.62534 93.79586 5951 ft 147 kts 34°
2026-05-09 02:18 24.63373 93.80218 5731 ft 146 kts 34°
2026-05-09 02:18 24.64211 93.80851 5506 ft 146 kts 34°
2026-05-09 02:18 24.65051 93.81484 5282 ft 147 kts 34°
2026-05-09 02:18 24.65895 93.82120 5044 ft 147 kts 34°
2026-05-09 02:19 24.66736 93.82755 4827 ft 146 kts 34°
2026-05-09 02:19 24.67574 93.83386 4601 ft 145 kts 34°
2026-05-09 02:19 24.68403 93.84012 4368 ft 144 kts 34°
2026-05-09 02:19 24.69229 93.84635 4152 ft 144 kts 34°
2026-05-09 02:20 24.70053 93.85259 3928 ft 143 kts 34°
2026-05-09 02:20 24.70873 93.85877 3713 ft 142 kts 34°
2026-05-09 02:20 24.71691 93.86494 3486 ft 142 kts 34°
2026-05-09 02:20 24.72508 93.87108 3270 ft 143 kts 34°
2026-05-09 02:21 24.73319 93.87723 3047 ft 141 kts 34°
2026-05-09 02:21 24.74124 93.88331 2834 ft 141 kts 34°
2026-05-09 02:21 24.74933 93.88942 2612 ft 141 kts 34°
2026-05-09 02:21 24.75686 93.89512 2551 ft 105 kts 34°
2026-05-09 02:22 24.76041 93.89782 2550 ft 30 kts 34°
2026-05-09 02:22 24.76202 93.89901 2548 ft 14 kts 33°
2026-05-09 02:22 24.76259 93.89943 2548 ft 6 kts 33°
2026-05-09 02:22 24.76291 93.89951 2548 ft 5 kts 344°
2026-05-09 02:23 24.76320 93.89920 2549 ft 7 kts 306°
2026-05-09 02:23 24.76343 93.89885 2549 ft 0 kts 304°
2026-05-09 02:26 24.76347 93.89878 2549 ft 2 kts 303°
2026-05-09 02:26 24.76366 93.89867 2549 ft 4 kts 355°
2026-05-09 02:26 24.76393 93.89875 2549 ft 2 kts 358°
2026-05-09 02:27 24.76411 93.89854 2549 ft 5 kts 307°
2026-05-09 02:27 24.76400 93.89827 2549 ft 1 kts 221°
2026-05-09 02:27 24.76391 93.89819 2549 ft 0 kts 219°